Regional Weather Roundup
Issued by NWS

Home | Current Version | Previous Version | Graphics & Text | Print | Product List | Glossary On
Versions: 1 2 3 4 5 6 7 8 9 10 11 12 13 14 15 16 17 18 19 20 21 22 23 24 25 26 27 28 29 30 31 32 33 34 35 36 37 38 39 40 41 42 43 44 45 46 47 48 49 50
000
ASUS43 KFSD 281210
RWRSD

WEATHER ROUNDUP FOR SOUTH DAKOTA
NATIONAL WEATHER SERVICE SIOUX FALLS SD
700 AM CDT THU JUL 28 2016

NOTE: "FAIR" INDICATES FEW OR NO CLOUDS BELOW 12,000 FEET WITH NO
SIGNIFICANT WEATHER AND/OR OBSTRUCTIONS TO VISIBILITY.


SDZ001>005-009-010-012>017-281300-
NORTHWEST AND NORTH CENTRAL SOUTH DAKOTA

CITY           SKY/WX    TMP DP  RH WIND       PRES   REMARKS
BUFFALO          N/A     61  60  97 NE7       30.06F
FAITH            N/A     59  57  93 E9        30.11S
MOBRIDGE       CLOUDY    61  57  87 CALM      30.09S
$$

SDZ012>016-024>037-041>051-057-063-072>074-281300-
SOUTHWEST AND SOUTH CENTRAL SOUTH DAKOTA

CITY           SKY/WX    TMP DP  RH WIND       PRES   REMARKS
RAPID CTY ARPT PTCLDY    59  57  93 W8        30.08R
PIERRE         CLOUDY    62  58  86 E6        30.10R
CUSTER         CLOUDY    53  48  83 NW5       30.22R
ELLSWORTH AFB  PTCLDY    61  61 100 N10       30.09R
PHILIP         CLOUDY    58  58 100 E7        30.09F
PINE RIDGE     LGT RAIN  62  60  93 S25G38    30.07F
WINNER         FAIR      60  57  89 CALM      30.12R
$$

SDZ004>011-016>023-039-040-281300-
NORTHEAST SOUTH DAKOTA

CITY           SKY/WX    TMP DP  RH WIND       PRES   REMARKS
ABERDEEN       MOCLDY    61  58  90 N5        30.10S
WATERTOWN      MOCLDY    61  58  90 N7        30.09R
BROOKINGS      MOCLDY    59  57  93 NW5       30.08R
SISSETON         N/A     60  58  92 NW9       30.08R
$$

SDZ017-020-022-023-036>040-048>070-281300-
SOUTHEAST SOUTH DAKOTA

CITY           SKY/WX    TMP DP  RH WIND       PRES   REMARKS
SIOUX FALLS    PTCLDY    63  58  83 CALM      30.06R
HURON          CLOUDY    60  58  92 NW5       30.08S
CHAMBERLAIN    PTCLDY    61  59  94 E3        30.11R
MITCHELL       CLEAR     61  59  93 NW3       30.08S
YANKTON        CLEAR     63  57  82 N6        30.06S
$$

ABBREVIATIONS USED IN REMARKS
   TC - TEMPERATURE IN CELSIUS
  WCI - WIND CHILL INDEX
   HX - HEAT INDEX
  VSB - VISIBILITY





USA.gov is the U.S. government's official web portal to all federal, state and local government web resources and services.